Regional Weather Roundup
Issued by NWS Albany, NY

Home | Current Version | Previous Version | Text Only | Print | Product List | Glossary On
Versions: 1 2 3 4 5 6 7 8 9 10 11 12 13 14 15 16 17 18 19 20 21 22 23 24 25 26 27 28 29 30 31 32 33 34 35 36 37 38 39 40 41 42 43 44 45 46 47 48 49 50
683
ASUS41 KALY 312110
RWRALY

NEW YORK STATE HOURLY WEATHER ROUNDUP
NATIONAL WEATHER SERVICE ALBANY NY
500 PM EDT WED AUG 31 2016

NOTE: "FAIR" INDICATES FEW OR NO CLOUDS BELOW 12,000 FEET WITH NO
SIGNIFICANT WEATHER AND/OR NO OBSTRUCTIONS TO VISIBILITY.

NYZ032-033-038>043-046>054-057>066-NYZ062>081-082-084-312200-
EAST


CITY           SKY/WX    TMP DP  RH WIND       PRES   REMARKS
ALBANY         LGT RAIN  75  66  73 S5        29.87F
GLENS FALLS    CLOUDY    75  64  68 S10       29.85F
POUGHKEEPSIE   CLOUDY    78  66  66 SW5       29.88F
NEWBURGH       PTSUNNY   79  70  73 CALM      29.92F
MONTGOMERY     CLOUDY    80  68  66 N3        29.90F
WHITE PLAINS   CLOUDY    82  64  54 SW5       29.90F
ISLIP          CLOUDY    79  70  74 S10       29.89F
NEW YORK CITY  PTSUNNY   86  68  54 S12       29.87F
CENTRAL PARK   CLOUDY    86  62  44 S3        29.91F
$$

NYZ005>009-017-018-044>046-055-056-312200-
CENTRAL


CITY           SKY/WX    TMP DP  RH WIND       PRES   REMARKS
FULTON         CLOUDY    76  67  73 SW6       29.88F
SYRACUSE       PTSUNNY   78  64  61 W9        29.87S
ROME           CLOUDY    76  64  66 VRB3      29.89F
ELMIRA         CLOUDY    74  65  73 W5        29.90F
BINGHAMTON     CLOUDY    69  61  75 SW7       29.94F
MONTICELLO     CLOUDY    72  66  83 CALM      29.96F
$$

NYZ026>034-041>043-087-312200-
NORTH


CITY           SKY/WX    TMP DP  RH WIND       PRES   REMARKS
WATERTOWN      CLOUDY    73  67  81 W12       29.87R THUNDER
FORT DRUM      NOT AVBL
MASSENA        CLOUDY    69  60  73 NW6       29.83S
SARANAC LAKE   CLOUDY    70  63  78 SW9       29.87F
PLATTSBURGH    MOSUNNY   77  66  68 S6        29.80F
$$

NYZ001>004-010>016-019>021-085-312200-
WEST


CITY           SKY/WX    TMP DP  RH WIND       PRES   REMARKS
BUFFALO        CLOUDY    75  67  76 SW12      29.90R THUNDER
DUNKIRK        PTSUNNY   77  70  79 W12       29.91S
JAMESTOWN      CLOUDY    70  64  83 SW6       29.96F
WELLSVILLE     CLOUDY    70  64  81 W5        29.98F
ROCHESTER      PTSUNNY   79  68  69 W8        29.88F
PENN YAN       CLOUDY    77  64  64 SW12      29.90F
$$

             KEY
       WCI = WIND CHILL INDEX
       VSB = VISIBILITY
       HX  = HEAT INDEX
$$




USA.gov is the U.S. government's official web portal to all federal, state and local government web resources and services.